GW2722 Weather Reports


Display with metric or nautical units.
time (UTC)temp
F
wind
direction
speed
MPH
gust
MPH
rain 1hr
in
rain 24hr
in
rain mn
in
humidity
%
barometer
mb
20260505130113 57 312 2.0 9.0 0.01 0.19 0.19 91 1008.8
20260505124605 57 293 4.0 9.0 0.01 0.19 0.19 93 1009.0
20260505123101 56 325 4.0 10.0 0.01 0.19 0.19 94 1009.2
20260505121559 56 285 1.0 6.0 0.02 0.19 0.19 95 1008.8
20260505120116 56 0 0.0 5.0 0.02 0.18 0.18 95 1009.1
20260505114601 56 0 3.0 6.0 0.03 0.18 0.18 95 1009.5
20260505113105 56 360 2.0 6.0 0.04 0.18 0.18 96 1009.3
20260505111558 56 331 3.0 7.0 0.04 0.17 0.17 96 1009.2
20260505110116 56 308 2.0 9.0 0.05 0.16 0.16 95 1009.1
20260505101603 56 0 0.0 2.0 0.08 0.13 0.13 94 1009.5
20260505100059 57 296 0.0 2.0 0.09 0.11 0.11 93 1009.9
20260505094600 57 132 0.0 5.0 0.10 0.10 0.10 93 1010.2
20260505093108 57 147 0.0 7.0 0.08 0.08 0.08 91 1010.4
20260505091600 58 0 0.0 6.0 0.05 0.05 0.05 87 1010.3
20260505090057 62 76 3.0 15.0 0.02 0.02 0.02 77 1009.9
20260505084559 65 85 2.0 12.0 0.00 0.00 0.00 59 1008.9
20260505083058 66 38 4.0 17.0 0.00 0.00 0.00 59 1007.8
20260505081618 66 33 6.0 14.0 0.00 0.00 0.00 58 1007.3
20260505080109 66 350 5.0 18.0 0.00 0.00 0.00 58 1006.8
20260505074557 66 355 10.0 17.0 0.00 0.00 0.00 58 1006.7
20260505073058 66 338 8.0 20.0 0.00 0.00 0.00 58 1006.9
20260505071624 66 352 7.0 18.0 0.00 0.00 0.00 58 1006.8
20260505070111 66 337 7.0 12.0 0.00 0.00 0.00 58 1006.7
20260505064609 66 5 9.0 14.0 0.00 0.00 0.00 58 1006.8
20260505063058 66 335 9.0 15.0 0.00 0.00 0.00 58 1006.9
20260505061602 66 360 7.0 12.0 0.00 0.00 0.00 58 1007.0
20260505060059 66 352 7.0 18.0 0.00 0.00 0.00 57 1007.1
20260505054558 66 348 6.0 13.0 0.00 0.00 0.00 57 1006.9
20260505053106 66 347 8.0 14.0 0.00 0.00 0.00 57 1006.7
20260505051559 67 335 7.0 12.0 0.00 0.00 0.00 56 1006.6
20260505041557 68 329 7.0 16.0 0.00 0.00 0.00 55 1006.8
20260505040106 68 355 7.0 12.0 0.00 0.00 0.00 55 1007.0
20260505034601 68 15 8.0 16.0 0.00 0.00 0.00 56 1007.1
20260505033101 68 350 6.0 13.0 0.00 0.00 0.00 56 1007.3
20260505031601 67 345 7.0 12.0 0.00 0.00 0.00 57 1007.2
20260505030103 67 5 4.0 9.0 0.00 0.00 0.00 58 1007.0
20260505024558 67 333 5.0 9.0 0.00 0.00 0.00 58 1006.8
20260505023108 67 12 3.0 9.0 0.00 0.00 0.00 58 1006.7
20260505021602 68 352 4.0 10.0 0.00 0.00 0.00 56 1006.6
20260505014600 69 360 4.0 11.0 0.00 0.00 0.00 55 1005.9
20260505013059 69 355 4.0 9.0 0.00 0.00 0.00 54 1005.6
20260505011557 69 360 3.0 9.0 0.00 0.00 0.00 54 1005.5
20260505010105 70 315 4.0 8.0 0.00 0.00 0.00 53 1005.6
20260505004557 70 5 3.0 8.0 0.00 0.00 0.00 52 1005.7
20260505003105 71 44 3.0 9.0 0.00 0.00 0.00 51 1005.7
20260505001559 72 5 4.0 10.0 0.00 0.00 0.00 49 1005.7
20260505000111 73 344 7.0 14.0 0.00 0.00 0.00 48 1005.8
20260504234558 73 13 9.0 17.0 0.00 0.00 0.00 46 1006.2
20260504233106 73 360 7.0 17.0 0.00 0.00 0.00 47 1006.4
20260504231559 74 332 7.0 16.0 0.00 0.00 0.00 48 1006.5
20260504230059 74 325 6.0 14.0 0.00 0.00 0.00 50 1006.8
20260504224602 74 29 8.0 17.0 0.00 0.00 0.00 48 1006.8
20260504223059 74 360 8.0 20.0 0.00 0.00 0.00 48 1006.9
20260504221558 74 360 9.0 18.0 0.00 0.00 0.00 47 1007.1
20260504220118 74 346 12.0 22.0 0.00 0.00 0.00 45 1007.1
20260504214559 75 338 12.0 26.0 0.00 0.00 0.00 43 1007.1
20260504213101 75 34 7.0 22.0 0.00 0.00 0.00 42 1007.1
20260504211603 75 100 9.0 24.0 0.00 0.00 0.00 40 1007.1
20260504210058 75 350 10.0 20.0 0.00 0.00 0.00 44 1007.4
20260504204556 75 24 9.0 16.0 0.00 0.00 0.00 47 1007.3
20260504203058 75 304 6.0 17.0 0.00 0.00 0.00 48 1007.5
20260504201559 75 355 9.0 13.0 0.00 0.00 0.00 46 1007.7
20260504200100 74 341 9.0 15.0 0.00 0.00 0.00 49 1007.8
20260504194559 74 335 3.0 8.0 0.00 0.00 0.00 51 1008.0
20260504193100 73 355 4.0 9.0 0.00 0.00 0.00 52 1008.3
20260504191601 73 71 3.0 11.0 0.00 0.00 0.00 52 1008.7
20260504190111 73 24 10.0 18.0 0.00 0.00 0.00 52 1008.9
20260504184614 72 46 3.0 10.0 0.00 0.00 0.00 57 1009.1
20260504183101 72 355 7.0 16.0 0.00 0.00 0.00 56 1009.0
20260504181559 71 336 4.0 11.0 0.00 0.00 0.00 60 1009.0
20260504180058 69 43 6.0 12.0 0.00 0.00 0.00 61 1009.0
20260504174609 68 339 4.0 14.0 0.00 0.00 0.00 63 1009.0
20260504173106 67 23 8.0 17.0 0.00 0.00 0.00 62 1009.0
20260504171557 67 334 9.0 20.0 0.00 0.00 0.00 62 1009.1
20260504170109 67 334 8.0 24.0 0.00 0.00 0.00 62 1009.0